2015-049G (40905 NORAD) Tracking and Keplerian Element Data

This shows tracking and keplerian element data for the satellite.

Feedback or suggestion? Click here.




ElementValue
Catalog40905
Name2015-049G
Epoch Orbit33152
Epoch Day262.1658706
Epoch Year2021
RAAN259.8777
Inclination97.5048
Eccentricity0.0014089
Argument of Perigee229.2768
Mean Anonmoly193.1311
Mean Motion15.15139567
Decay Rate6.66E-06
L11 40905U 15049G 21262.16587060 .00000666 00000-0 39006-4 0 9993
L22 40905 97.5048 259.8777 0014089 229.2768 193.1311 15.15139567331522

Live tracking and technical data element details for 2015-049G (NORAD 40905). 2015-049G can be tracked NOW for your location showing map with azimuth and elevation plus other details from your city location.

Track the satellite on the map from your city or location and see movement details for azimuth, elevation, latitude, longitude, range, height, and movement on the map or in text.







IsCatalogInMostPopularTable: catalog: 40905, numindb: 560
Update: records affected: 1



GetName: 40905 2015-049G

Hit Count: updated at: Sun, 26 Sep 2021 01:11:09 GMT